Location: Beadle
(51.4667°N, 109.0000°W)
Time: 04:56:33
(UTC+00:00)

Altair - Pass Details

Date: 30 May 2022
Orbit: 1501 x 1682 km, 47.2° (Epoch: 30 June)

Event Time Altitude Azimuth Distance (km) Brightness Sun altitude
Rises 20:59:43 0° 195° (SSW) 4,777 10.6 54.0°
Reaches altitude 10° 21:03:29 10° 183° (S) 3,824 10.1 53.5°
Maximum altitude 21:10:54 25° 133° (SE) 2,859 9.2 52.7°
Drops below altitude 10° 21:18:29 10° 84° (E) 3,928 9.4 51.8°
Sets 21:22:22 0° 72° (ENE) 4,932 9.8 51.3°
